[[{"header":{"parameterUnit":"m.s-1","parameterCategory":1,"la1":30.2992,"la2":30.254,"lo1":-89.0895,"lo2":-89.0443,"dy":0.0025,"dx":0.0025,"nx":19,"ny":19,"refTime":"2026-05-10T21:00:00:Z","depth":0,"parameterNumber":2,"parameterNumberName":"U-component_of_WINDS"},"data":[0,0,0,-0.5929,-0.5928,-0.5863,-0.5863,-0.58,-0.58,0,0,0,0,0,0,0,0,0,0,0,-0.5958,-0.5958,-0.5929,-0.5927,-0.5863,-0.5863,-0.5801,-0.58,0,0,0,0,0,0,0,0,0,0,0,-0.5958,-0.5958,-0.5958,-0.5927,-0.5864,-0.5863,-0.5801,-0.5842,0,0,0,0,0,0,0,0,0,0,-0.5901,-0.5939,-0.5958,-0.5958,-0.5927,-0.5864,-0.5863,-0.5844,-0.584,-0.5838,0,-0.5838,0,-0.5818,-0.5797,-0.5797,0,0,0,-0.5919,-0.5943,-0.5916,-0.5958,-0.5926,-0.5864,-0.589,-0.5841,-0.5837,-0.5832,-0.5837,-0.5834,-0.5817,-0.5797,-0.5797,-0.581,-0.5811,0,0,-0.5923,-0.5953,-0.5919,-0.5913,-0.5923,-0.5892,-0.5888,-0.5838,-0.5845,-0.5836,-0.5832,-0.5816,-0.5796,-0.5796,-0.581,-0.5811,0,0,0,-0.5938,-0.5956,-0.5929,-0.5916,-0.5903,-0.5891,-0.5886,-0.5848,-0.5837,-0.5831,-0.5815,-0.5796,-0.5796,-0.5809,-0.581,-0.5862,0,0,0,-0.594,-0.5964,-0.5931,-0.5949,-0.5904,-0.5874,-0.5897,-0.584,-0.5833,-0.5816,-0.5796,-0.5795,-0.5809,-0.581,-0.5859,-0.5881,0,0,0,-0.5959,-0.5966,-0.5961,-0.5951,-0.5924,-0.5874,-0.586,-0.5838,-0.5824,-0.5797,-0.5795,-0.5809,-0.581,-0.5857,-0.5877,-0.5895,0,0,0,-0.5987,-0.6006,-0.5962,-0.5978,-0.5925,-0.5906,-0.586,-0.5845,-0.5828,-0.5796,-0.5809,-0.581,-0.5856,-0.5875,-0.5892,-0.5915,-0.5927,0,0,-0.6028,-0.6012,-0.6019,-0.5978,-0.5975,-0.5914,-0.5919,-0.5874,-0.5844,-0.5824,-0.5824,-0.586,-0.5877,-0.5894,-0.5983,-0.5993,0,0,0,-0.6042,-0.6048,-0.6041,-0.6026,-0.5993,-0.5967,-0.5919,-0.5903,-0.5884,-0.584,-0.5869,-0.5879,-0.5887,-0.5897,-0.5905,-0.5912,-0.5816,-0.5815,-0.5815,-0.6143,-0.6104,-0.6114,-0.6068,-0.6054,-0.6006,-0.5991,-0.5962,-0.5926,-0.5934,-0.5927,-0.5986,-0.5998,-0.6004,-0.6012,-0.5936,-0.5936,-0.5936,-0.5936,-0.62,-0.6203,-0.6156,-0.6148,-0.6108,-0.6102,-0.6056,-0.6032,-0.6021,-0.5987,-0.5993,-0.596,-0.6016,-0.6021,-0.5939,-0.5939,-0.5938,-0.5938,-0.5938,-0.6263,-0.6257,-0.6238,-0.6214,-0.62,-0.6153,-0.6145,-0.6108,-0.6073,-0.6079,-0.6069,-0.6069,-0.6064,-0.6077,-0.6077,-0.6077,-0.6077,-0.6077,-0.6078,-0.6336,-0.6312,-0.631,-0.6278,-0.6264,-0.6242,-0.6195,-0.6181,-0.6156,-0.613,-0.613,-0.6095,-0.6028,-0.6013,-0.6081,-0.608,-0.608,-0.6079,-0.6079,-0.641,-0.6388,-0.6384,-0.6371,-0.6332,-0.6322,-0.6275,-0.625,-0.6233,-0.6231,-0.6195,-0.6151,-0.6133,-0.6126,-0.6113,-0.6202,-0.6202,-0.6202,-0.6202,-0.6464,-0.6451,-0.644,-0.6422,-0.64,-0.6358,-0.6357,-0.6321,-0.628,-0.6268,-0.625,-0.6229,-0.6224,-0.6209,-0.62,-0.6187,-0.6294,-0.6294,-0.6294,-0.6509,-0.6492,-0.6498,-0.6458,-0.6425,-0.6398,-0.6396,-0.6378,-0.6327,-0.6297,-0.6258,-0.6254,-0.6221,-0.6212,-0.6181,-0.6168,-0.6145,0,0]},{"header":{"parameterUnit":"m.s-1","parameterCategory":1,"la1":30.2992,"la2":30.254,"lo1":-89.0895,"lo2":-89.0443,"dy":0.0025,"dx":0.0025,"nx":19,"ny":19,"refTime":"2026-05-10T21:00:00:Z","depth":0,"parameterNumber":3,"parameterNumberName":"V-component_of_WINDS"},"data":[0,0,0,2.9625,2.9625,2.9618,2.9618,2.9616,2.9616,0,0,0,0,0,0,0,0,0,0,0,2.9631,2.9631,2.9625,2.9625,2.9618,2.9618,2.9616,2.9616,0,0,0,0,0,0,0,0,0,0,0,2.9631,2.9631,2.9631,2.9625,2.9618,2.9618,2.9616,2.9619,0,0,0,0,0,0,0,0,0,0,2.9624,2.9634,2.9631,2.9631,2.9625,2.9618,2.9618,2.9619,2.9618,2.9622,0,2.9626,0,2.9621,2.9616,2.9616,0,0,0,2.9622,2.9634,2.9629,2.9631,2.9625,2.9618,2.962,2.9618,2.9618,2.9622,2.9626,2.9626,2.9621,2.9616,2.9616,2.9647,2.9648,0,0,2.9622,2.9632,2.9629,2.9629,2.963,2.962,2.962,2.9618,2.9624,2.9626,2.9626,2.9621,2.9616,2.9616,2.9647,2.9647,0,0,0,2.9625,2.9633,2.9627,2.9629,2.9627,2.962,2.962,2.9624,2.9621,2.9625,2.9621,2.9616,2.9616,2.9647,2.9647,2.9672,0,0,0,2.9625,2.9634,2.9627,2.9633,2.9627,2.9625,2.9625,2.9621,2.9621,2.9621,2.9616,2.9616,2.9646,2.9647,2.967,2.9682,0,0,0,2.963,2.9635,2.9635,2.9634,2.9631,2.9625,2.9622,2.9621,2.9618,2.9616,2.9616,2.9646,2.9647,2.9669,2.968,2.9694,0,0,0,2.9638,2.9657,2.9636,2.9655,2.9631,2.964,2.9622,2.9628,2.963,2.9616,2.9646,2.9647,2.9669,2.9679,2.9693,2.9708,2.9715,0,0,2.9667,2.9661,2.9671,2.9652,2.9668,2.964,2.9659,2.9651,2.9642,2.9646,2.9647,2.9671,2.968,2.9694,2.975,2.9756,0,0,0,2.9684,2.9692,2.9693,2.9695,2.969,2.9686,2.9674,2.9671,2.9674,2.9646,2.9679,2.9684,2.9692,2.9699,2.9704,2.971,2.965,2.965,2.965,2.974,2.9727,2.9744,2.973,2.9732,2.972,2.972,2.9714,2.97,2.9708,2.971,2.9746,2.9754,2.9758,2.9765,2.9716,2.9716,2.9716,2.9716,2.9782,2.9792,2.9773,2.9783,2.9769,2.9777,2.9766,2.9756,2.9761,2.9743,2.9749,2.9732,2.9765,2.977,2.9718,2.9718,2.9718,2.9717,2.9717,2.9818,2.9821,2.9817,2.9819,2.9822,2.9807,2.9814,2.9801,2.9788,2.9794,2.9795,2.9795,2.9794,2.9796,2.9796,2.9796,2.9796,2.9796,2.9796,2.9858,2.9852,2.986,2.9855,2.9855,2.9854,2.9841,2.9841,2.9837,2.9827,2.9827,2.9813,2.977,2.976,2.9798,2.9798,2.9797,2.9797,2.9797,2.9907,2.9894,2.9905,2.9905,2.99,2.9904,2.9887,2.9888,2.9885,2.9889,2.9874,2.9843,2.9836,2.9832,2.9823,2.9876,2.9876,2.9876,2.9876,2.9939,2.9933,2.9942,2.9943,2.9943,2.9929,2.9942,2.9933,2.9922,2.992,2.991,2.9897,2.9894,2.9888,2.9883,2.9875,2.994,2.994,2.994,2.9969,2.9963,2.9977,2.9966,2.996,2.9956,2.9969,2.9971,2.9955,2.9942,2.9918,2.9915,2.9895,2.9889,2.9876,2.9868,2.9854,0,0]}]]